owner,sensor,date,latitude,longitude,vertical_datum,sea_water_practical_salinity,qcFlag 
SCCF RECON,ioos:station:SCCF:51:1,2008-11-01T00:00:00Z,26.5545,-82.1715,1.895,33.71,1111122 
SCCF RECON,ioos:station:SCCF:51:1,2008-11-01T01:00:00Z,26.5545,-82.1715,1.918,33.71,1111122 
SCCF RECON,ioos:station:SCCF:51:1,2008-11-01T02:00:00Z,26.5545,-82.1715,1.95,33.84,1111122 
SCCF RECON,ioos:station:SCCF:51:1,2008-11-01T03:00:00Z,26.5545,-82.1715,1.992,34.24,1111122 
SCCF RECON,ioos:station:SCCF:51:1,2008-11-01T04:00:00Z,26.5545,-82.1715,2.033,34.88,1111122 
SCCF RECON,ioos:station:SCCF:51:1,2008-11-01T05:00:00Z,26.5545,-82.1715,2.081,35.05,1111122 
SCCF RECON,ioos:station:SCCF:51:1,2008-11-01T06:00:00Z,26.5545,-82.1715,2.108,35.13,1111122 
SCCF RECON,ioos:station:SCCF:51:1,2008-11-01T07:00:00Z,26.5545,-82.1715,2.079,35.08,1111122 
SCCF RECON,ioos:station:SCCF:51:1,2008-11-01T08:00:00Z,26.5545,-82.1715,2.01,35.02,1111122 
SCCF RECON,ioos:station:SCCF:51:1,2008-11-01T09:00:00Z,26.5545,-82.1715,1.909,34.8,1111122 
SCCF RECON,ioos:station:SCCF:51:1,2008-11-01T10:00:00Z,26.5545,-82.1715,1.8,34.38,1111122 
SCCF RECON,ioos:station:SCCF:51:1,2008-11-01T11:00:00Z,26.5545,-82.1715,1.686,34.24,1111122 
SCCF RECON,ioos:station:SCCF:51:1,2008-11-01T12:00:00Z,26.5545,-82.1715,1.58,34.17,1111122 
SCCF RECON,ioos:station:SCCF:51:1,2008-11-01T13:00:00Z,26.5545,-82.1715,1.486,34.12,1111122 
SCCF RECON,ioos:station:SCCF:51:1,2008-11-01T14:00:00Z,26.5545,-82.1715,1.415,34.01,1111122 
SCCF RECON,ioos:station:SCCF:51:1,2008-11-01T15:00:00Z,26.5545,-82.1715,1.408,34.06,1111122 
SCCF RECON,ioos:station:SCCF:51:1,2008-11-01T16:00:00Z,26.5545,-82.1715,1.477,34.33,1111122 
SCCF RECON,ioos:station:SCCF:51:1,2008-11-01T17:00:00Z,26.5545,-82.1715,1.573,34.73,1111122 
SCCF RECON,ioos:station:SCCF:51:1,2008-11-01T18:00:00Z,26.5545,-82.1715,1.688,34.93,1111122 
SCCF RECON,ioos:station:SCCF:51:1,2008-11-01T19:00:00Z,26.5545,-82.1715,1.785,35.23,1111122 
SCCF RECON,ioos:station:SCCF:51:1,2008-11-01T20:00:00Z,26.5545,-82.1715,1.857,34.74,1111122 
SCCF RECON,ioos:station:SCCF:51:1,2008-11-01T21:00:00Z,26.5545,-82.1715,1.902,35.48,1111122 
SCCF RECON,ioos:station:SCCF:51:1,2008-11-01T22:00:00Z,26.5545,-82.1715,1.928,35.09,1111122 
SCCF RECON,ioos:station:SCCF:51:1,2008-11-01T23:00:00Z,26.5545,-82.1715,1.921,35.04,1111122 
SCCF RECON,ioos:station:SCCF:51:1,2008-11-02T00:00:00Z,26.5545,-82.1715,1.922,34.25,1111122 
SCCF RECON,ioos:station:SCCF:51:1,2008-11-02T01:00:00Z,26.5545,-82.1715,1.949,35.55,1111122 
SCCF RECON,ioos:station:SCCF:51:1,2008-11-02T02:00:00Z,26.5545,-82.1715,2.014,34.52,1111122 
SCCF RECON,ioos:station:SCCF:51:1,2008-11-02T03:00:00Z,26.5545,-82.1715,2.085,35.36,1111122 
SCCF RECON,ioos:station:SCCF:51:1,2008-11-02T04:00:00Z,26.5545,-82.1715,2.15,35.78,1111122 
SCCF RECON,ioos:station:SCCF:51:1,2008-11-02T05:00:00Z,26.5545,-82.1715,2.2,35.84,1111122 
SCCF RECON,ioos:station:SCCF:51:1,2008-11-02T06:00:00Z,26.5545,-82.1715,2.238,35.94,1111122 
SCCF RECON,ioos:station:SCCF:51:1,2008-11-02T07:00:00Z,26.5545,-82.1715,2.23,35.77,1111122 
SCCF RECON,ioos:station:SCCF:51:1,2008-11-02T08:00:00Z,26.5545,-82.1715,2.19,35.73,1111122 
SCCF RECON,ioos:station:SCCF:51:1,2008-11-02T09:00:00Z,26.5545,-82.1715,2.13,34.7,1111122 
SCCF RECON,ioos:station:SCCF:51:1,2008-11-02T10:00:00Z,26.5545,-82.1715,2.04,34.89,1111122 
SCCF RECON,ioos:station:SCCF:51:1,2008-11-02T11:00:00Z,26.5545,-82.1715,1.938,34.12,1111122 
SCCF RECON,ioos:station:SCCF:51:1,2008-11-02T12:00:00Z,26.5545,-82.1715,1.834,33.61,1111122 
SCCF RECON,ioos:station:SCCF:51:1,2008-11-02T13:00:00Z,26.5545,-82.1715,1.732,33.42,1111122 
SCCF RECON,ioos:station:SCCF:51:1,2008-11-02T14:00:00Z,26.5545,-82.1715,1.644,33.52,1111122 
SCCF RECON,ioos:station:SCCF:51:1,2008-11-02T15:00:00Z,26.5545,-82.1715,1.591,33.86,1111122 
SCCF RECON,ioos:station:SCCF:51:1,2008-11-02T16:00:00Z,26.5545,-82.1715,1.61,33.8,1111122 
SCCF RECON,ioos:station:SCCF:51:1,2008-11-02T17:00:00Z,26.5545,-82.1715,1.68,33.67,1111122 
SCCF RECON,ioos:station:SCCF:51:1,2008-11-02T18:00:00Z,26.5545,-82.1715,1.783,34.17,1111122 
SCCF RECON,ioos:station:SCCF:51:1,2008-11-02T19:00:00Z,26.5545,-82.1715,1.883,35.11,1111122 
SCCF RECON,ioos:station:SCCF:51:1,2008-11-02T20:00:00Z,26.5545,-82.1715,1.948,35.09,1111122 
SCCF RECON,ioos:station:SCCF:51:1,2008-11-02T21:00:00Z,26.5545,-82.1715,1.978,34.58,1111122 
SCCF RECON,ioos:station:SCCF:51:1,2008-11-02T22:00:00Z,26.5545,-82.1715,1.991,34.35,1111122 
SCCF RECON,ioos:station:SCCF:51:1,2008-11-02T23:00:00Z,26.5545,-82.1715,1.985,34.02,1111122 
SCCF RECON,ioos:station:SCCF:51:1,2008-11-03T00:00:00Z,26.5545,-82.1715,1.99,33.85,1111122 
SCCF RECON,ioos:station:SCCF:51:1,2008-11-03T01:00:00Z,26.5545,-82.1715,1.994,33.67,1111122 
SCCF RECON,ioos:station:SCCF:51:1,2008-11-03T02:00:00Z,26.5545,-82.1715,2.007,33.84,1111122 
SCCF RECON,ioos:station:SCCF:51:1,2008-11-03T03:00:00Z,26.5545,-82.1715,2.029,33.89,1111122 
SCCF RECON,ioos:station:SCCF:51:1,2008-11-03T04:00:00Z,26.5545,-82.1715,2.077,33.7,1111122 
SCCF RECON,ioos:station:SCCF:51:1,2008-11-03T05:00:00Z,26.5545,-82.1715,2.103,33.7,1111122 
SCCF RECON,ioos:station:SCCF:51:1,2008-11-03T06:00:00Z,26.5545,-82.1715,2.125,33.79,1111122 
SCCF RECON,ioos:station:SCCF:51:1,2008-11-03T07:00:00Z,26.5545,-82.1715,2.152,34.04,1111122 
SCCF RECON,ioos:station:SCCF:51:1,2008-11-03T08:00:00Z,26.5545,-82.1715,2.142,34.1,1111122 
SCCF RECON,ioos:station:SCCF:51:1,2008-11-03T09:00:00Z,26.5545,-82.1715,2.092,33.9,1111122 
SCCF RECON,ioos:station:SCCF:51:1,2008-11-03T10:00:00Z,26.5545,-82.1715,2.018,34.23,1111122 
SCCF RECON,ioos:station:SCCF:51:1,2008-11-03T11:00:00Z,26.5545,-82.1715,1.923,34.25,1111122 
SCCF RECON,ioos:station:SCCF:51:1,2008-11-03T12:00:00Z,26.5545,-82.1715,1.822,34.36,1111122 
SCCF RECON,ioos:station:SCCF:51:1,2008-11-03T13:00:00Z,26.5545,-82.1715,1.723,34.28,1111122 
SCCF RECON,ioos:station:SCCF:51:1,2008-11-03T14:00:00Z,26.5545,-82.1715,1.637,33.99,1111122 
SCCF RECON,ioos:station:SCCF:51:1,2008-11-03T15:00:00Z,26.5545,-82.1715,1.569,33.93,1111122 
SCCF RECON,ioos:station:SCCF:51:1,2008-11-03T16:00:00Z,26.5545,-82.1715,1.549,34.2,1111122 
SCCF RECON,ioos:station:SCCF:51:1,2008-11-03T17:00:00Z,26.5545,-82.1715,1.587,34.34,1111122 
SCCF RECON,ioos:station:SCCF:51:1,2008-11-03T18:00:00Z,26.5545,-82.1715,1.653,34.03,1111122 
SCCF RECON,ioos:station:SCCF:51:1,2008-11-03T19:00:00Z,26.5545,-82.1715,1.739,34.29,1111122 
SCCF RECON,ioos:station:SCCF:51:1,2008-11-03T20:00:00Z,26.5545,-82.1715,1.827,35.4,1111122 
SCCF RECON,ioos:station:SCCF:51:1,2008-11-03T21:00:00Z,26.5545,-82.1715,1.893,34.98,1111122 
SCCF RECON,ioos:station:SCCF:51:1,2008-11-03T22:00:00Z,26.5545,-82.1715,1.934,34.87,1111122 
SCCF RECON,ioos:station:SCCF:51:1,2008-11-03T23:00:00Z,26.5545,-82.1715,1.954,34.99,1111122 
SCCF RECON,ioos:station:SCCF:51:1,2008-11-04T00:00:00Z,26.5545,-82.1715,1.965,34.73,1111122 
SCCF RECON,ioos:station:SCCF:51:1,2008-11-04T01:00:00Z,26.5545,-82.1715,1.953,34.59,1111122 
SCCF RECON,ioos:station:SCCF:51:1,2008-11-04T02:00:00Z,26.5545,-82.1715,1.95,35.46,1111122 
SCCF RECON,ioos:station:SCCF:51:1,2008-11-04T03:00:00Z,26.5545,-82.1715,1.976,35.65,1111122 
SCCF RECON,ioos:station:SCCF:51:1,2008-11-04T04:00:00Z,26.5545,-82.1715,2.018,35.46,1111122 
SCCF RECON,ioos:station:SCCF:51:1,2008-11-04T05:00:00Z,26.5545,-82.1715,2.032,35.61,1111122 
SCCF RECON,ioos:station:SCCF:51:1,2008-11-04T06:00:00Z,26.5545,-82.1715,2.044,35.36,1111122 
SCCF RECON,ioos:station:SCCF:51:1,2008-11-04T07:00:00Z,26.5545,-82.1715,2.04,34.85,1111122 
SCCF RECON,ioos:station:SCCF:51:1,2008-11-04T08:00:00Z,26.5545,-82.1715,2.046,34.98,1111122 
SCCF RECON,ioos:station:SCCF:51:1,2008-11-04T09:00:00Z,26.5545,-82.1715,2.025,34.99,1111122 
SCCF RECON,ioos:station:SCCF:51:1,2008-11-04T10:00:00Z,26.5545,-82.1715,1.986,34.92,1111122 
SCCF RECON,ioos:station:SCCF:51:1,2008-11-04T11:00:00Z,26.5545,-82.1715,1.93,34.94,1111122 
SCCF RECON,ioos:station:SCCF:51:1,2008-11-04T12:00:00Z,26.5545,-82.1715,1.857,34.95,1111122 
SCCF RECON,ioos:station:SCCF:51:1,2008-11-04T13:00:00Z,26.5545,-82.1715,1.773,34.97,1111122 
SCCF RECON,ioos:station:SCCF:51:1,2008-11-04T14:00:00Z,26.5545,-82.1715,1.686,34.97,1111122 
SCCF RECON,ioos:station:SCCF:51:1,2008-11-04T15:00:00Z,26.5545,-82.1715,1.621,34.94,1111122 
SCCF RECON,ioos:station:SCCF:51:1,2008-11-04T16:00:00Z,26.5545,-82.1715,1.575,34.94,1111122 
SCCF RECON,ioos:station:SCCF:51:1,2008-11-04T17:00:00Z,26.5545,-82.1715,1.547,34.95,1111122 
SCCF RECON,ioos:station:SCCF:51:1,2008-11-04T18:00:00Z,26.5545,-82.1715,1.57,34.95,1111122 
SCCF RECON,ioos:station:SCCF:51:1,2008-11-04T19:00:00Z,26.5545,-82.1715,1.617,35.07,1111122 
SCCF RECON,ioos:station:SCCF:51:1,2008-11-04T20:00:00Z,26.5545,-82.1715,1.692,35.16,1111122 
SCCF RECON,ioos:station:SCCF:51:1,2008-11-04T21:00:00Z,26.5545,-82.1715,1.769,35.39,1111122 
SCCF RECON,ioos:station:SCCF:51:1,2008-11-04T22:00:00Z,26.5545,-82.1715,1.843,35.75,1111122 
SCCF RECON,ioos:station:SCCF:51:1,2008-11-04T23:00:00Z,26.5545,-82.1715,1.903,35.43,1111122 
SCCF RECON,ioos:station:SCCF:51:1,2008-11-05T00:00:00Z,26.5545,-82.1715,1.944,36.1,1111122 
SCCF RECON,ioos:station:SCCF:51:1,2008-11-05T01:00:00Z,26.5545,-82.1715,1.945,36.08,1111122 
SCCF RECON,ioos:station:SCCF:51:1,2008-11-05T02:00:00Z,26.5545,-82.1715,1.927,35.54,1111122 
SCCF RECON,ioos:station:SCCF:51:1,2008-11-05T03:00:00Z,26.5545,-82.1715,1.927,35.46,1111122 
SCCF RECON,ioos:station:SCCF:51:1,2008-11-05T04:00:00Z,26.5545,-82.1715,1.945,35.73,1111122 
SCCF RECON,ioos:station:SCCF:51:1,2008-11-05T05:00:00Z,26.5545,-82.1715,1.96,35.86,1111122 
SCCF RECON,ioos:station:SCCF:51:1,2008-11-05T06:00:00Z,26.5545,-82.1715,1.981,35.59,1111122 
SCCF RECON,ioos:station:SCCF:51:1,2008-11-05T07:00:00Z,26.5545,-82.1715,2.002,35.3,1111122 
SCCF RECON,ioos:station:SCCF:51:1,2008-11-05T08:00:00Z,26.5545,-82.1715,2.029,34.99,1111122 
SCCF RECON,ioos:station:SCCF:51:1,2008-11-05T09:00:00Z,26.5545,-82.1715,2.045,34.88,1111122 
SCCF RECON,ioos:station:SCCF:51:1,2008-11-05T10:00:00Z,26.5545,-82.1715,2.04,35.12,1111122 
SCCF RECON,ioos:station:SCCF:51:1,2008-11-05T11:00:00Z,26.5545,-82.1715,2.004,35.38,1111122 
SCCF RECON,ioos:station:SCCF:51:1,2008-11-05T12:00:00Z,26.5545,-82.1715,1.95,34.98,1111122 
SCCF RECON,ioos:station:SCCF:51:1,2008-11-05T13:00:00Z,26.5545,-82.1715,1.88,34.9,1111122 
SCCF RECON,ioos:station:SCCF:51:1,2008-11-05T14:00:00Z,26.5545,-82.1715,1.803,34.91,1111122 
SCCF RECON,ioos:station:SCCF:51:1,2008-11-05T15:00:00Z,26.5545,-82.1715,1.721,34.95,1111122 
SCCF RECON,ioos:station:SCCF:51:1,2008-11-05T16:00:00Z,26.5545,-82.1715,1.648,34.95,1111122 
SCCF RECON,ioos:station:SCCF:51:1,2008-11-05T17:00:00Z,26.5545,-82.1715,1.6,34.91,1111122 
SCCF RECON,ioos:station:SCCF:51:1,2008-11-05T18:00:00Z,26.5545,-82.1715,1.598,34.88,1111122 
SCCF RECON,ioos:station:SCCF:51:1,2008-11-05T19:00:00Z,26.5545,-82.1715,1.624,34.97,1111122 
SCCF RECON,ioos:station:SCCF:51:1,2008-11-05T20:00:00Z,26.5545,-82.1715,1.675,35.02,1111122 
SCCF RECON,ioos:station:SCCF:51:1,2008-11-05T21:00:00Z,26.5545,-82.1715,1.741,34.95,1111122 
SCCF RECON,ioos:station:SCCF:51:1,2008-11-05T22:00:00Z,26.5545,-82.1715,1.804,35.24,1111122 
SCCF RECON,ioos:station:SCCF:51:1,2008-11-05T23:00:00Z,26.5545,-82.1715,1.866,35.69,1111122 
SCCF RECON,ioos:station:SCCF:51:1,2008-11-06T00:00:00Z,26.5545,-82.1715,1.923,36.03,1111122 
SCCF RECON,ioos:station:SCCF:51:1,2008-11-06T01:00:00Z,26.5545,-82.1715,1.972,35.71,1111122 
SCCF RECON,ioos:station:SCCF:51:1,2008-11-06T02:00:00Z,26.5545,-82.1715,1.983,35.62,1111122 
SCCF RECON,ioos:station:SCCF:51:1,2008-11-06T03:00:00Z,26.5545,-82.1715,1.959,35.6,1111122 
SCCF RECON,ioos:station:SCCF:51:1,2008-11-06T04:00:00Z,26.5545,-82.1715,1.937,35.47,1111122 
SCCF RECON,ioos:station:SCCF:51:1,2008-11-06T05:00:00Z,26.5545,-82.1715,1.915,35.4,1111122 
SCCF RECON,ioos:station:SCCF:51:1,2008-11-06T06:00:00Z,26.5545,-82.1715,1.91,35.38,1111122 
SCCF RECON,ioos:station:SCCF:51:1,2008-11-06T07:00:00Z,26.5545,-82.1715,1.93,35.49,1111122 
SCCF RECON,ioos:station:SCCF:51:1,2008-11-06T08:00:00Z,26.5545,-82.1715,1.96,35.55,1111122 
SCCF RECON,ioos:station:SCCF:51:1,2008-11-06T09:00:00Z,26.5545,-82.1715,2.0,35.64,1111122 
SCCF RECON,ioos:station:SCCF:51:1,2008-11-06T10:00:00Z,26.5545,-82.1715,2.05,35.9,1111122 
SCCF RECON,ioos:station:SCCF:51:1,2008-11-06T11:00:00Z,26.5545,-82.1715,2.07,35.9,1111122 
SCCF RECON,ioos:station:SCCF:51:1,2008-11-06T12:00:00Z,26.5545,-82.1715,2.04,35.22,1111122 
SCCF RECON,ioos:station:SCCF:51:1,2008-11-06T13:00:00Z,26.5545,-82.1715,2.003,35.11,1111122 
SCCF RECON,ioos:station:SCCF:51:1,2008-11-06T14:00:00Z,26.5545,-82.1715,1.948,35.18,1111122 
SCCF RECON,ioos:station:SCCF:51:1,2008-11-06T15:00:00Z,26.5545,-82.1715,1.874,35.33,1111122 
SCCF RECON,ioos:station:SCCF:51:1,2008-11-06T16:00:00Z,26.5545,-82.1715,1.783,35.41,1111122 
SCCF RECON,ioos:station:SCCF:51:1,2008-11-06T17:00:00Z,26.5545,-82.1715,1.709,35.17,1111122 
SCCF RECON,ioos:station:SCCF:51:1,2008-11-06T18:00:00Z,26.5545,-82.1715,1.713,35.09,1111122 
SCCF RECON,ioos:station:SCCF:51:1,2008-11-06T20:00:00Z,26.5545,-82.1715,1.693,35.0,1111122 
SCCF RECON,ioos:station:SCCF:51:1,2008-11-06T21:00:00Z,26.5545,-82.1715,1.75,35.01,1111122 
SCCF RECON,ioos:station:SCCF:51:1,2008-11-06T22:00:00Z,26.5545,-82.1715,1.829,35.16,1111122 
SCCF RECON,ioos:station:SCCF:51:1,2008-11-06T23:00:00Z,26.5545,-82.1715,1.908,35.82,1111122 
SCCF RECON,ioos:station:SCCF:51:1,2008-11-07T00:00:00Z,26.5545,-82.1715,1.976,35.92,1111122 
SCCF RECON,ioos:station:SCCF:51:1,2008-11-07T01:00:00Z,26.5545,-82.1715,2.015,35.78,1111122 
SCCF RECON,ioos:station:SCCF:51:1,2008-11-07T02:00:00Z,26.5545,-82.1715,2.031,35.92,1111122 
SCCF RECON,ioos:station:SCCF:51:1,2008-11-07T03:00:00Z,26.5545,-82.1715,2.006,35.52,1111122 
SCCF RECON,ioos:station:SCCF:51:1,2008-11-07T04:00:00Z,26.5545,-82.1715,1.956,35.22,1111122 
SCCF RECON,ioos:station:SCCF:51:1,2008-11-07T05:00:00Z,26.5545,-82.1715,1.903,35.18,1111122 
SCCF RECON,ioos:station:SCCF:51:1,2008-11-07T06:00:00Z,26.5545,-82.1715,1.858,35.1,1111122 
SCCF RECON,ioos:station:SCCF:51:1,2008-11-07T07:00:00Z,26.5545,-82.1715,1.824,35.17,1111122 
SCCF RECON,ioos:station:SCCF:51:1,2008-11-07T08:00:00Z,26.5545,-82.1715,1.84,35.22,1111122 
SCCF RECON,ioos:station:SCCF:51:1,2008-11-07T09:00:00Z,26.5545,-82.1715,1.89,35.34,1111122 
SCCF RECON,ioos:station:SCCF:51:1,2008-11-07T10:00:00Z,26.5545,-82.1715,1.95,35.54,1111122 
SCCF RECON,ioos:station:SCCF:51:1,2008-11-07T11:00:00Z,26.5545,-82.1715,2.01,35.74,1111122 
SCCF RECON,ioos:station:SCCF:51:1,2008-11-07T12:00:00Z,26.5545,-82.1715,2.03,35.86,1111122 
SCCF RECON,ioos:station:SCCF:51:1,2008-11-07T13:00:00Z,26.5545,-82.1715,2.019,35.63,1111122 
SCCF RECON,ioos:station:SCCF:51:1,2008-11-07T14:00:00Z,26.5545,-82.1715,1.983,35.51,1111122 
SCCF RECON,ioos:station:SCCF:51:1,2008-11-07T15:00:00Z,26.5545,-82.1715,1.932,35.33,1111122 
SCCF RECON,ioos:station:SCCF:51:1,2008-11-07T16:00:00Z,26.5545,-82.1715,1.862,35.23,1111122 
SCCF RECON,ioos:station:SCCF:51:1,2008-11-07T17:00:00Z,26.5545,-82.1715,1.785,35.16,1111122 
SCCF RECON,ioos:station:SCCF:51:1,2008-11-07T18:00:00Z,26.5545,-82.1715,1.713,34.94,1111122 
SCCF RECON,ioos:station:SCCF:51:1,2008-11-07T19:00:00Z,26.5545,-82.1715,1.659,35.16,1111122 
SCCF RECON,ioos:station:SCCF:51:1,2008-11-07T20:00:00Z,26.5545,-82.1715,1.659,35.2,1111122 
SCCF RECON,ioos:station:SCCF:51:1,2008-11-07T21:00:00Z,26.5545,-82.1715,1.703,35.24,1111122 
SCCF RECON,ioos:station:SCCF:51:1,2008-11-07T22:00:00Z,26.5545,-82.1715,1.774,35.27,1111122 
SCCF RECON,ioos:station:SCCF:51:1,2008-11-07T23:00:00Z,26.5545,-82.1715,1.87,35.63,1111122 
SCCF RECON,ioos:station:SCCF:51:1,2008-11-08T00:00:00Z,26.5545,-82.1715,1.95,35.97,1111122 
SCCF RECON,ioos:station:SCCF:51:1,2008-11-08T01:00:00Z,26.5545,-82.1715,2.01,35.93,1111122 
SCCF RECON,ioos:station:SCCF:51:1,2008-11-08T02:00:00Z,26.5545,-82.1715,2.069,36.1,1111122 
SCCF RECON,ioos:station:SCCF:51:1,2008-11-08T03:00:00Z,26.5545,-82.1715,2.053,35.95,1111122 
SCCF RECON,ioos:station:SCCF:51:1,2008-11-08T04:00:00Z,26.5545,-82.1715,2.01,35.43,1111122 
SCCF RECON,ioos:station:SCCF:51:1,2008-11-08T05:00:00Z,26.5545,-82.1715,1.931,35.29,1111122 
SCCF RECON,ioos:station:SCCF:51:1,2008-11-08T06:00:00Z,26.5545,-82.1715,1.85,35.24,1111122 
SCCF RECON,ioos:station:SCCF:51:1,2008-11-08T07:00:00Z,26.5545,-82.1715,1.779,35.17,1111122 
SCCF RECON,ioos:station:SCCF:51:1,2008-11-08T08:00:00Z,26.5545,-82.1715,1.75,35.26,1111122 
SCCF RECON,ioos:station:SCCF:51:1,2008-11-08T09:00:00Z,26.5545,-82.1715,1.77,35.15,1111122 
SCCF RECON,ioos:station:SCCF:51:1,2008-11-08T10:00:00Z,26.5545,-82.1715,1.82,35.58,1111122 
SCCF RECON,ioos:station:SCCF:51:1,2008-11-08T11:00:00Z,26.5545,-82.1715,1.89,35.76,1111122 
SCCF RECON,ioos:station:SCCF:51:1,2008-11-08T12:00:00Z,26.5545,-82.1715,1.974,35.94,1111122 
SCCF RECON,ioos:station:SCCF:51:1,2008-11-08T13:00:00Z,26.5545,-82.1715,2.015,36.22,1111122 
SCCF RECON,ioos:station:SCCF:51:1,2008-11-08T14:00:00Z,26.5545,-82.1715,2.016,36.28,1111122 
SCCF RECON,ioos:station:SCCF:51:1,2008-11-08T15:00:00Z,26.5545,-82.1715,1.983,36.07,1111122 
SCCF RECON,ioos:station:SCCF:51:1,2008-11-08T16:00:00Z,26.5545,-82.1715,1.919,35.89,1111122 
SCCF RECON,ioos:station:SCCF:51:1,2008-11-08T17:00:00Z,26.5545,-82.1715,1.843,35.65,1111122 
SCCF RECON,ioos:station:SCCF:51:1,2008-11-08T18:00:00Z,26.5545,-82.1715,1.771,35.35,1111122 
SCCF RECON,ioos:station:SCCF:51:1,2008-11-08T19:00:00Z,26.5545,-82.1715,1.702,35.22,1111122 
SCCF RECON,ioos:station:SCCF:51:1,2008-11-08T20:00:00Z,26.5545,-82.1715,1.666,35.37,1111122 
SCCF RECON,ioos:station:SCCF:51:1,2008-11-08T21:00:00Z,26.5545,-82.1715,1.683,35.59,1111122 
SCCF RECON,ioos:station:SCCF:51:1,2008-11-08T22:00:00Z,26.5545,-82.1715,1.721,35.59,1111122 
SCCF RECON,ioos:station:SCCF:51:1,2008-11-08T23:00:00Z,26.5545,-82.1715,1.792,35.71,1111122 
SCCF RECON,ioos:station:SCCF:51:1,2008-11-09T00:00:00Z,26.5545,-82.1715,1.891,36.26,1111122 
SCCF RECON,ioos:station:SCCF:51:1,2008-11-09T01:00:00Z,26.5545,-82.1715,1.991,36.32,1111122 
SCCF RECON,ioos:station:SCCF:51:1,2008-11-09T02:00:00Z,26.5545,-82.1715,2.072,36.39,1111122 
SCCF RECON,ioos:station:SCCF:51:1,2008-11-09T03:00:00Z,26.5545,-82.1715,2.1,36.33,1111122 
SCCF RECON,ioos:station:SCCF:51:1,2008-11-09T04:00:00Z,26.5545,-82.1715,2.057,36.39,1111122 
SCCF RECON,ioos:station:SCCF:51:1,2008-11-09T05:00:00Z,26.5545,-82.1715,1.966,35.93,1111122 
SCCF RECON,ioos:station:SCCF:51:1,2008-11-09T06:00:00Z,26.5545,-82.1715,1.857,35.61,1111122 
SCCF RECON,ioos:station:SCCF:51:1,2008-11-09T07:00:00Z,26.5545,-82.1715,1.766,35.6,1111122 
SCCF RECON,ioos:station:SCCF:51:1,2008-11-09T08:00:00Z,26.5545,-82.1715,1.696,35.58,1111122 
SCCF RECON,ioos:station:SCCF:51:1,2008-11-09T09:00:00Z,26.5545,-82.1715,1.673,35.54,1111122 
SCCF RECON,ioos:station:SCCF:51:1,2008-11-09T10:00:00Z,26.5545,-82.1715,1.699,35.43,1111122 
SCCF RECON,ioos:station:SCCF:51:1,2008-11-09T11:00:00Z,26.5545,-82.1715,1.756,35.37,1111122 
SCCF RECON,ioos:station:SCCF:51:1,2008-11-09T12:00:00Z,26.5545,-82.1715,1.834,35.32,1111122 
SCCF RECON,ioos:station:SCCF:51:1,2008-11-09T13:00:00Z,26.5545,-82.1715,1.924,35.55,1111122 
SCCF RECON,ioos:station:SCCF:51:1,2008-11-09T14:00:00Z,26.5545,-82.1715,1.992,35.8,1111122 
SCCF RECON,ioos:station:SCCF:51:1,2008-11-09T15:00:00Z,26.5545,-82.1715,2.001,35.92,1111122 
SCCF RECON,ioos:station:SCCF:51:1,2008-11-09T16:00:00Z,26.5545,-82.1715,1.965,35.86,1111122 
SCCF RECON,ioos:station:SCCF:51:1,2008-11-09T17:00:00Z,26.5545,-82.1715,1.899,35.73,1111122 
SCCF RECON,ioos:station:SCCF:51:1,2008-11-09T18:00:00Z,26.5545,-82.1715,1.811,35.43,1111122 
SCCF RECON,ioos:station:SCCF:51:1,2008-11-09T19:00:00Z,26.5545,-82.1715,1.723,35.34,1111122 
SCCF RECON,ioos:station:SCCF:51:1,2008-11-09T20:00:00Z,26.5545,-82.1715,1.656,35.32,1111122 
SCCF RECON,ioos:station:SCCF:51:1,2008-11-09T21:00:00Z,26.5545,-82.1715,1.654,35.28,1111122 
SCCF RECON,ioos:station:SCCF:51:1,2008-11-09T22:00:00Z,26.5545,-82.1715,1.691,35.35,1111122 
SCCF RECON,ioos:station:SCCF:51:1,2008-11-09T23:00:00Z,26.5545,-82.1715,1.758,35.34,1111122 
SCCF RECON,ioos:station:SCCF:51:1,2008-11-10T00:00:00Z,26.5545,-82.1715,1.849,35.51,1111122 
SCCF RECON,ioos:station:SCCF:51:1,2008-11-10T01:00:00Z,26.5545,-82.1715,1.931,35.97,1111122 
SCCF RECON,ioos:station:SCCF:51:1,2008-11-10T02:00:00Z,26.5545,-82.1715,2.004,36.04,1111122 
SCCF RECON,ioos:station:SCCF:51:1,2008-11-10T03:00:00Z,26.5545,-82.1715,2.033,35.94,1111122 
SCCF RECON,ioos:station:SCCF:51:1,2008-11-10T04:00:00Z,26.5545,-82.1715,2.011,36.02,1111122 
SCCF RECON,ioos:station:SCCF:51:1,2008-11-10T05:00:00Z,26.5545,-82.1715,1.937,35.68,1111122 
SCCF RECON,ioos:station:SCCF:51:1,2008-11-10T06:00:00Z,26.5545,-82.1715,1.844,35.58,1111122 
SCCF RECON,ioos:station:SCCF:51:1,2008-11-10T07:00:00Z,26.5545,-82.1715,1.728,35.34,1111122 
SCCF RECON,ioos:station:SCCF:51:1,2008-11-10T08:00:00Z,26.5545,-82.1715,1.607,35.41,1111122 
SCCF RECON,ioos:station:SCCF:51:1,2008-11-10T09:00:00Z,26.5545,-82.1715,1.514,35.43,1111122 
SCCF RECON,ioos:station:SCCF:51:1,2008-11-10T10:00:00Z,26.5545,-82.1715,1.461,35.35,1111122 
SCCF RECON,ioos:station:SCCF:51:1,2008-11-10T11:00:00Z,26.5545,-82.1715,1.502,35.19,1111122 
SCCF RECON,ioos:station:SCCF:51:1,2008-11-10T12:00:00Z,26.5545,-82.1715,1.585,34.95,1111122 
SCCF RECON,ioos:station:SCCF:51:1,2008-11-10T13:00:00Z,26.5545,-82.1715,1.708,35.04,1111122 
SCCF RECON,ioos:station:SCCF:51:1,2008-11-10T14:00:00Z,26.5545,-82.1715,1.839,35.61,1111122 
SCCF RECON,ioos:station:SCCF:51:1,2008-11-10T15:00:00Z,26.5545,-82.1715,1.938,35.94,1111122 
SCCF RECON,ioos:station:SCCF:51:1,2008-11-10T16:00:00Z,26.5545,-82.1715,1.981,35.74,1111122 
SCCF RECON,ioos:station:SCCF:51:1,2008-11-10T17:00:00Z,26.5545,-82.1715,1.948,35.82,1111122 
SCCF RECON,ioos:station:SCCF:51:1,2008-11-10T18:00:00Z,26.5545,-82.1715,1.879,35.53,1111122 
SCCF RECON,ioos:station:SCCF:51:1,2008-11-10T19:00:00Z,26.5545,-82.1715,1.798,35.53,1111122 
SCCF RECON,ioos:station:SCCF:51:1,2008-11-10T20:00:00Z,26.5545,-82.1715,1.736,35.35,1111122 
SCCF RECON,ioos:station:SCCF:51:1,2008-11-10T21:00:00Z,26.5545,-82.1715,1.719,35.36,1111122 
SCCF RECON,ioos:station:SCCF:51:1,2008-11-10T22:00:00Z,26.5545,-82.1715,1.752,35.15,1111122 
SCCF RECON,ioos:station:SCCF:51:1,2008-11-10T23:00:00Z,26.5545,-82.1715,1.819,35.45,1111122 
SCCF RECON,ioos:station:SCCF:51:1,2008-11-11T00:00:00Z,26.5545,-82.1715,1.9,35.55,1111122 
SCCF RECON,ioos:station:SCCF:51:1,2008-11-11T01:00:00Z,26.5545,-82.1715,2.009,35.58,1111122 
SCCF RECON,ioos:station:SCCF:51:1,2008-11-11T02:00:00Z,26.5545,-82.1715,2.11,35.56,1111122 
SCCF RECON,ioos:station:SCCF:51:1,2008-11-11T03:00:00Z,26.5545,-82.1715,2.163,35.61,1111122 
SCCF RECON,ioos:station:SCCF:51:1,2008-11-11T04:00:00Z,26.5545,-82.1715,2.138,35.67,1111122 
SCCF RECON,ioos:station:SCCF:51:1,2008-11-11T05:00:00Z,26.5545,-82.1715,2.057,35.67,1111122 
SCCF RECON,ioos:station:SCCF:51:1,2008-11-11T06:00:00Z,26.5545,-82.1715,1.947,35.22,1111122 
SCCF RECON,ioos:station:SCCF:51:1,2008-11-11T07:00:00Z,26.5545,-82.1715,1.808,35.08,1111122 
SCCF RECON,ioos:station:SCCF:51:1,2008-11-11T08:00:00Z,26.5545,-82.1715,1.667,35.16,1111122 
SCCF RECON,ioos:station:SCCF:51:1,2008-11-11T09:00:00Z,26.5545,-82.1715,1.538,34.98,1111122 
SCCF RECON,ioos:station:SCCF:51:1,2008-11-11T10:00:00Z,26.5545,-82.1715,1.444,34.91,1111122 
SCCF RECON,ioos:station:SCCF:51:1,2008-11-11T11:00:00Z,26.5545,-82.1715,1.429,34.97,1111122 
SCCF RECON,ioos:station:SCCF:51:1,2008-11-11T12:00:00Z,26.5545,-82.1715,1.51,35.1,1111122 
SCCF RECON,ioos:station:SCCF:51:1,2008-11-11T13:00:00Z,26.5545,-82.1715,1.633,35.21,1111122 
SCCF RECON,ioos:station:SCCF:51:1,2008-11-11T14:00:00Z,26.5545,-82.1715,1.795,35.59,1111122 
SCCF RECON,ioos:station:SCCF:51:1,2008-11-11T15:00:00Z,26.5545,-82.1715,1.929,35.81,1111122 
SCCF RECON,ioos:station:SCCF:51:1,2008-11-11T16:00:00Z,26.5545,-82.1715,2.005,35.47,1111122 
SCCF RECON,ioos:station:SCCF:51:1,2008-11-11T17:00:00Z,26.5545,-82.1715,2.019,35.82,1111122 